Location: Newark
(38.7000°N, 115.1000°W)
Time: 17:21:28
(UTC+00:00)

N. Korean satellite - Visible Passes

Search period start: 24 January 2020 00:00
Search period end: 03 February 2020 00:00
Orbit: 454 x 507 km, 97.2° (Epoch: 23 January)

Date Brightness Start Highest point End Pass type
(mag) Time Alt. Az. Time Alt. Az. Time Alt. Az.
24 Jan 9.8 12:31:16 10° ENE 12:33:15 14° E 12:35:14 10° SE visible
24 Jan 7.3 14:03:31 10° N 14:06:41 30° WNW 14:09:52 10° SW visible
25 Jan 6.4 13:37:42 10° N 13:41:16 69° WNW 13:44:53 10° SSW visible
26 Jan 10.0 01:47:10 10° WSW 01:48:38 12° W 01:50:04 10° WNW visible
26 Jan 7.5 13:12:16 10° NNE 13:15:47 50° E 13:19:20 10° S visible
27 Jan 9.1 01:20:04 10° SSW 01:22:58 26° W 01:25:54 10° NW visible
27 Jan 9.1 12:47:16 10° NE 12:50:13 23° E 12:53:10 10° SSE visible
27 Jan 8.0 14:20:49 10° NNW 14:23:27 19° WNW 14:26:05 10° WSW visible
28 Jan 10.1 12:23:24 10° ENE 12:24:33 11° E 12:25:43 10° ESE visible
28 Jan 7.0 13:54:42 10° N 13:58:05 39° WNW 14:01:31 10° SW visible
29 Jan 6.5 13:29:01 10° NNE 13:32:39 90° ESE 13:36:19 10° SSW visible
30 Jan 9.8 01:37:45 10° SW 01:39:54 16° W 01:42:04 10° NW visible
30 Jan 8.1 13:03:43 10° NNE 13:07:08 39° E 13:10:35 10° SSE visible
31 Jan 9.5 12:38:55 10° NE 12:41:32 19° E 12:44:10 10° SE visible
31 Jan 7.7 14:11:52 10° NNW 14:14:52 24° WNW 14:17:52 10° SW visible
01 Feb 6.7 13:45:56 10° N 13:49:29 52° WNW 13:53:03 10° SSW visible
02 Feb 6.9 13:20:22 10° NNE 13:24:01 69° E 13:27:41 10° S visible
